CW4279 Weather Reports


Display with metric or nautical units.
time (UTC)temp
F
wind
direction
speed
MPH
gust
MPH
rain 1hr
in
rain 24hr
in
rain mn
in
humidity
%
barometer
mb
20260505075053 38 89 1.0 3.0 0.00 0.00 0.00 71 1004.0
20260505074550 38 97 1.0 2.0 0.00 0.00 0.00 70 1003.8
20260505074047 38 93 1.0 5.0 0.00 0.00 0.00 70 1004.0
20260505073544 38 105 0.0 2.0 0.00 0.00 0.00 70 1003.9
20260505073044 38 110 1.0 2.0 0.00 0.00 0.00 70 1004.0
20260505072538 38 116 0.0 0.0 0.00 0.00 0.00 70 1004.1
20260505072035 39 278 2.0 3.0 0.00 0.00 0.00 69 1004.0
20260505071530 39 127 0.0 1.0 0.00 0.00 0.00 69 1003.9
20260505071029 39 143 1.0 2.0 0.00 0.00 0.00 68 1003.9
20260505070526 39 115 0.0 1.0 0.00 0.00 0.00 68 1004.2
20260505070022 39 149 1.0 2.0 0.00 0.00 0.00 67 1003.9
20260505065518 39 130 0.0 3.0 0.00 0.00 0.00 66 1003.8
20260505065014 39 287 1.0 2.0 0.00 0.00 0.00 65 1003.8
20260505064511 40 87 1.0 5.0 0.00 0.00 0.00 64 1003.7
20260505064010 39 121 0.0 3.0 0.00 0.00 0.00 64 1003.8
20260505063507 39 144 1.0 5.0 0.00 0.00 0.00 65 1003.8
20260505063002 39 132 0.0 2.0 0.00 0.00 0.00 65 1003.6
20260505062459 39 54 2.0 3.0 0.00 0.00 0.00 65 1003.7
20260505061956 39 152 0.0 3.0 0.00 0.00 0.00 65 1003.6
20260505061454 39 124 1.0 2.0 0.00 0.00 0.00 66 1003.5
20260505060951 39 138 0.0 1.0 0.00 0.00 0.00 65 1003.9
20260505060449 39 122 1.0 1.0 0.00 0.00 0.00 65 1003.5
20260505055945 39 137 0.0 1.0 0.00 0.00 0.00 65 1003.6
20260505055441 39 126 0.0 1.0 0.00 0.00 0.00 66 1003.5
20260505054938 39 123 0.0 1.0 0.00 0.00 0.00 66 1003.5
20260505054435 40 138 0.0 2.0 0.00 0.00 0.00 65 1003.5
20260505053933 40 127 1.0 1.0 0.00 0.00 0.00 65 1003.5
20260505053430 40 136 0.0 0.0 0.00 0.00 0.00 64 1003.4
20260505052927 40 149 1.0 2.0 0.00 0.00 0.00 63 1003.4
20260505052424 40 127 1.0 1.0 0.00 0.00 0.00 63 1003.3
20260505051921 40 154 1.0 2.0 0.00 0.00 0.00 63 1003.5
20260505051418 41 138 0.0 1.0 0.00 0.00 0.00 62 1003.2
20260505050916 41 138 1.0 1.0 0.00 0.00 0.00 62 1003.4
20260505050414 41 124 0.0 0.0 0.00 0.00 0.00 61 1003.4
20260505041341 42 128 0.0 2.0 0.00 0.00 0.00 59 1003.1
20260505040839 42 117 1.0 1.0 0.00 0.00 0.00 58 1002.9
20260505040336 42 125 0.0 3.0 0.00 0.00 0.00 59 1003.2
20260505035833 42 94 0.0 2.0 0.00 0.00 0.00 58 1003.3
20260505035328 42 171 1.0 2.0 0.00 0.00 0.00 58 1003.0
20260505034826 42 125 0.0 1.0 0.00 0.00 0.00 58 1003.1
20260505034322 42 128 0.0 0.0 0.00 0.00 0.00 58 1003.1
20260505033820 42 156 1.0 2.0 0.00 0.00 0.00 56 1003.1
20260505033316 43 133 0.0 1.0 0.00 0.00 0.00 56 1003.1
20260505032815 43 122 0.0 3.0 0.00 0.00 0.00 55 1003.2
20260505032311 43 140 2.0 2.0 0.00 0.00 0.00 55 1003.0
20260505031808 44 155 2.0 2.0 0.00 0.00 0.00 54 1003.2
20260505031304 44 132 1.0 3.0 0.00 0.00 0.00 54 1003.3
20260505030802 43 126 1.0 1.0 0.00 0.00 0.00 54 1003.1
20260505030258 43 146 0.0 1.0 0.00 0.00 0.00 54 1003.0
20260505025753 43 160 1.0 1.0 0.00 0.00 0.00 55 1003.0
20260505025251 43 132 0.0 0.0 0.00 0.00 0.00 55 1003.1
20260505024749 43 132 0.0 2.0 0.00 0.00 0.00 54 1003.0
20260505024246 44 148 0.0 0.0 0.00 0.00 0.00 54 1003.0
20260505023744 44 149 0.0 1.0 0.00 0.00 0.00 54 1002.9
20260505023241 44 141 0.0 1.0 0.00 0.00 0.00 53 1002.8
20260505022738 44 171 1.0 1.0 0.00 0.00 0.00 53 1002.8
20260505022235 44 147 0.0 1.0 0.00 0.00 0.00 53 1002.7
20260505021731 45 136 0.0 0.0 0.00 0.00 0.00 52 1002.6
20260505021229 45 136 0.0 1.0 0.00 0.00 0.00 52 1002.7
20260505020724 45 136 1.0 1.0 0.00 0.00 0.00 51 1002.6
20260505020219 45 122 1.0 1.0 0.00 0.00 0.00 51 1002.5
20260505015717 46 132 0.0 2.0 0.00 0.00 0.00 50 1002.3
20260505015214 46 328 2.0 3.0 0.00 0.00 0.00 50 1002.3
20260505014711 46 126 0.0 1.0 0.00 0.00 0.00 50 1002.2
20260505014209 46 152 0.0 1.0 0.00 0.00 0.00 49 1002.0
20260505013705 46 211 1.0 2.0 0.00 0.00 0.00 49 1002.2
20260505013202 46 106 0.0 3.0 0.00 0.00 0.00 49 1002.1
20260505012700 46 29 2.0 5.0 0.00 0.00 0.00 47 1002.1
20260505012157 47 206 2.0 3.0 0.00 0.00 0.00 48 1002.1
20260505011653 47 333 4.0 6.0 0.00 0.00 0.00 46 1001.9
20260505011150 48 131 1.0 6.0 0.00 0.00 0.00 46 1002.1
20260505010645 48 194 3.0 5.0 0.00 0.00 0.00 48 1001.8
20260505010143 48 108 1.0 3.0 0.00 0.00 0.00 48 1001.9
20260505005638 48 103 4.0 6.0 0.00 0.00 0.00 47 1001.6
20260505005136 48 117 0.0 3.0 0.00 0.00 0.00 46 1001.9
20260505004633 48 332 5.0 8.0 0.00 0.00 0.00 46 1001.7
20260505004129 49 342 3.0 5.0 0.00 0.00 0.00 46 1001.9
20260505003626 49 134 3.0 6.0 0.00 0.00 0.00 48 1001.6
20260505003124 49 114 1.0 9.0 0.00 0.00 0.00 47 1001.5
20260505002620 49 130 2.0 3.0 0.00 0.00 0.00 47 1001.5
20260505002118 50 20 6.0 8.0 0.00 0.00 0.00 45 1001.2
20260505001615 50 58 3.0 6.0 0.00 0.00 0.00 45 1001.3
20260505001113 50 178 3.0 6.0 0.00 0.00 0.00 45 1000.9
20260505000609 50 46 3.0 6.0 0.00 0.00 0.00 45 1000.9
20260505000108 50 62 1.0 7.0 0.00 0.00 0.00 44 1000.8
20260504235604 50 343 2.0 6.0 0.00 0.00 0.00 42 1000.8
20260504235100 50 358 6.0 8.0 0.00 0.00 0.00 42 1000.7
20260504234557 51 225 4.0 7.0 0.00 0.00 0.00 42 1000.6
20260504234054 52 182 1.0 5.0 0.00 0.00 0.00 41 1000.8
20260504233549 51 134 3.0 8.0 0.00 0.00 0.00 40 1000.3
20260504233047 52 93 2.0 7.0 0.00 0.00 0.00 40 1000.4
20260504232544 53 26 3.0 5.0 0.00 0.00 0.00 40 1000.5
20260504232041 52 41 2.0 8.0 0.00 0.00 0.00 39 1000.4
20260504231538 52 62 3.0 5.0 0.00 0.00 0.00 39 1000.4
20260504231034 52 230 3.0 10.0 0.00 0.00 0.00 40 1000.2
20260504230530 53 43 2.0 3.0 0.00 0.00 0.00 40 1000.2
20260504230029 54 25 4.0 7.0 0.00 0.00 0.00 39 1000.1
20260504225526 54 62 2.0 10.0 0.00 0.00 0.00 39 1000.2
20260504225023 57 91 4.0 13.0 0.00 0.00 0.00 38 1000.1
20260504224520 55 89 3.0 5.0 0.00 0.00 0.00 38 999.9
20260504224017 55 298 7.0 11.0 0.00 0.00 0.00 38 999.8
20260504223513 54 171 4.0 7.0 0.00 0.00 0.00 38 999.5
20260504223009 53 29 4.0 9.0 0.00 0.00 0.00 40 999.6
20260504222506 55 278 6.0 9.0 0.00 0.00 0.00 38 999.6
20260504222004 56 304 4.0 8.0 0.00 0.00 0.00 39 999.6
20260504221501 55 70 3.0 13.0 0.00 0.00 0.00 40 999.6
20260504220958 55 62 2.0 8.0 0.00 0.00 0.00 40 999.4
20260504220454 54 297 4.0 11.0 0.00 0.00 0.00 41 999.3
20260504215951 54 270 2.0 6.0 0.00 0.00 0.00 41 999.3
20260504215448 54 114 3.0 9.0 0.00 0.00 0.00 41 999.0
20260504214944 55 87 3.0 5.0 0.00 0.00 0.00 41 999.1
20260504214441 55 202 4.0 7.0 0.00 0.00 0.00 39 999.0
20260504213937 56 16 4.0 7.0 0.00 0.00 0.00 39 998.8
20260504213433 57 86 3.0 7.0 0.00 0.00 0.00 38 998.9
20260504212931 57 1 6.0 8.0 0.00 0.00 0.00 38 999.1
20260504212427 57 149 1.0 10.0 0.00 0.00 0.00 40 998.7
20260504211925 55 172 5.0 8.0 0.00 0.00 0.00 39 998.7
20260504211421 55 101 2.0 11.0 0.00 0.00 0.00 40 999.0
20260504210918 57 226 3.0 8.0 0.00 0.00 0.00 39 998.7
20260504210415 56 341 2.0 8.0 0.00 0.00 0.00 41 998.6
20260504205912 56 266 4.0 7.0 0.00 0.00 0.00 40 998.6
20260504205410 58 87 3.0 7.0 0.00 0.00 0.00 38 998.5
20260504204908 57 112 1.0 13.0 0.00 0.00 0.00 39 998.5
20260504204406 58 224 1.0 7.0 0.00 0.00 0.00 39 998.5
20260504203905 58 294 5.0 9.0 0.00 0.00 0.00 38 998.6
20260504203402 58 358 5.0 10.0 0.00 0.00 0.00 39 998.5
20260504202857 57 85 3.0 11.0 0.00 0.00 0.00 40 998.4
20260504202355 57 310 3.0 10.0 0.00 0.00 0.00 41 998.1
20260504201851 58 105 2.0 5.0 0.00 0.00 0.00 41 998.2
20260504201349 56 27 3.0 10.0 0.00 0.00 0.00 42 998.0
20260504200846 57 316 4.0 20.0 0.00 0.00 0.00 42 998.2
20260504200343 58 53 3.0 5.0 0.00 0.00 0.00 39 998.0
20260504195839 58 69 3.0 9.0 0.00 0.00 0.00 39 998.0
20260504195335 59 130 1.0 8.0 0.00 0.00 0.00 39 997.9
20260504194832 60 24 5.0 9.0 0.00 0.00 0.00 36 997.7
20260504194328 59 334 3.0 7.0 0.00 0.00 0.00 38 997.7
20260504193824 61 293 6.0 10.0 0.00 0.00 0.00 37 997.7
20260504193321 60 67 2.0 9.0 0.00 0.00 0.00 39 997.6
20260504192820 60 160 2.0 8.0 0.00 0.00 0.00 38 997.3
20260504192317 59 39 2.0 5.0 0.00 0.00 0.00 40 997.7
20260504191816 59 338 2.0 6.0 0.00 0.00 0.00 39 997.6
20260504191313 58 117 5.0 8.0 0.00 0.00 0.00 40 997.2
20260504190808 59 208 4.0 9.0 0.00 0.00 0.00 41 997.1
20260504190305 60 104 3.0 6.0 0.00 0.00 0.00 41 997.2
20260504185801 60 68 5.0 7.0 0.00 0.00 0.00 40 996.9
20260504185258 60 259 2.0 7.0 0.00 0.00 0.00 41 996.9
20260504184754 60 64 4.0 8.0 0.00 0.00 0.00 40 997.1
20260504184250 61 146 2.0 8.0 0.00 0.00 0.00 41 996.6
20260504183746 60 226 4.0 8.0 0.00 0.00 0.00 41 996.6
20260504183243 62 14 4.0 8.0 0.00 0.00 0.00 40 996.5
20260504182741 61 339 4.0 7.0 0.00 0.00 0.00 43 996.5
20260504182238 62 276 5.0 8.0 0.00 0.00 0.00 40 996.2
20260504181736 61 253 3.0 8.0 0.00 0.00 0.00 41 996.1
20260504181233 60 130 6.0 9.0 0.00 0.00 0.00 40 996.4
20260504180732 60 70 4.0 9.0 0.00 0.00 0.00 41 996.0
20260504180231 59 325 4.0 9.0 0.00 0.00 0.00 43 996.0
20260504175728 60 40 4.0 6.0 0.00 0.00 0.00 44 995.8
20260504175224 62 347 2.0 7.0 0.00 0.00 0.00 44 995.7
20260504174722 61 151 3.0 7.0 0.00 0.00 0.00 43 995.9
20260504174220 61 212 2.0 9.0 0.00 0.00 0.00 43 995.7
20260504173716 60 41 4.0 7.0 0.00 0.00 0.00 42 995.6
20260504173213 60 102 5.0 9.0 0.00 0.00 0.00 40 995.6
20260504172710 60 99 3.0 8.0 0.00 0.00 0.00 42 995.7
20260504172206 61 182 2.0 8.0 0.00 0.00 0.00 43 995.6
20260504171703 62 58 4.0 8.0 0.00 0.00 0.00 42 995.7
20260504171200 61 187 3.0 7.0 0.00 0.00 0.00 44 995.6
20260504170656 62 74 3.0 7.0 0.00 0.00 0.00 43 995.8
20260504170154 61 251 3.0 7.0 0.00 0.00 0.00 42 995.2
20260504160112 61 108 3.0 6.0 0.00 0.00 0.00 45 995.4
20260504151039 58 322 5.0 10.0 0.00 0.00 0.00 46 995.1
20260504150537 59 307 5.0 7.0 0.00 0.00 0.00 45 994.9
20260504141003 59 35 3.0 8.0 0.00 0.00 0.00 45 994.3
20260504140459 59 302 4.0 6.0 0.00 0.00 0.00 48 994.2
20260504130423 58 14 3.0 6.0 0.00 0.00 0.00 56 993.4
20260504110311 59 147 2.0 7.0 0.00 0.00 0.00 41 991.7
20260504100228 58 157 3.0 7.0 0.00 0.00 0.00 40 991.7
20260504081622 57 160 3.0 5.0 0.00 0.00 0.00 44 993.8
20260504081118 57 149 3.0 5.0 0.00 0.00 0.00 44 993.9
20260504080615 58 153 3.0 3.0 0.00 0.00 0.00 43 994.0
20260504080111 58 166 3.0 5.0 0.00 0.00 0.00 43 994.2